Dewpoint
27 27 27 27 27 27 26 26 26 26 26 27 27 27 27 27 27 25 25 25 24 23 23 23 23 23 23 22 22 22 22 21 21 22 22 21 19 19 19 19 19 18
27 27 27 27 27 27 26 25 25 26 26 26 27 27 27 27 27 26 25 24 24 23 23 22 23 23 22 22 22 21 21 21 21 23 21 21 19 21 20 20 20 20
26 26 26 26 25 25 25 25 25 25 25 26 26 26 27 27 27 26 25 24 23 23 22 22 22 23 22 22 22 21 20 20 20 21 21 21 20 21 20 21 21 20
26 26 25 25 25 25 25 24 24 25 25 25 25 26 26 27 26 26 25 26 24 23 22 22 22 22 22 21 21 20 20 20 20 21 21 21 20 20 20 20 20 20
26 26 26 25 25 25 24 24 23 24 24 24 25 25 26 26 26 25 25 25 24 23 22 22 22 22 21 21 21 20 19 19 20 20 19 19 19 20 19 20 19 19
26 26 26 25 25 25 23 23 22 22 23 23 24 25 25 25 25 25 25 24 24 23 22 21 21 21 21 20 20 19 19 18 19 19 19 18 18 19 18 19 19 18
26 26 25 25 24 24 23 22 22 22 22 23 23 23 24 24 25 24 24 24 24 23 22 21 20 20 21 20 19 18 18 17 18 18 18 17 18 18 18 19 18 18
25 25 25 25 24 24 23 22 21 21 21 22 22 22 23 24 24 24 24 24 23 23 22 21 20 20 20 19 18 18 17 17 17 18 17 17 17 17 17 18 18 17
25 25 25 24 24 23 23 23 22 21 21 21 21 21 22 23 23 23 23 23 23 22 22 20 20 19 19 18 17 17 16 16 17 17 17 16 16 16 17 17 17 16
24 24 24 24 24 24 23 23 22 21 21 20 20 20 21 22 22 22 22 23 22 22 21 20 19 19 18 18 17 16 15 15 16 16 16 16 16 16 16 16 16 15
23 24 23 23 23 23 23 23 23 22 21 20 20 20 20 20 21 22 21 22 21 21 20 20 19 18 18 17 16 15 14 14 15 15 15 15 15 15 19 16 15 15
22 23 23 23 23 23 23 24 27 23 21 20 19 19 19 20 20 21 21 21 21 21 20 19 19 18 17 17 16 15 14 14 14 15 15 15 14 15 16 15 15 14
21 22 22 22 23 23 23 22 22 22 22 21 20 20 20 20 20 20 21 20 20 20 19 19 18 17 17 16 15 15 14 13 14 14 14 14 14 14 14 14 14 14
21 21 21 22 22 22 23 22 22 22 23 22 21 20 20 20 20 20 20 20 20 19 19 19 18 17 16 15 15 14 14 13 14 14 13 13 13 13 13 13 13 13
20 20 21 22 23 23 23 23 23 23 24 23 22 21 21 20 20 20 20 20 19 19 19 18 17 16 16 15 15 14 14 14 14 15 13 13 12 12 12 13 12 11
20 21 21 22 22 23 23 24 23 23 24 24 23 22 21 21 20 20 20 20 19 19 18 17 17 16 20 23 22 15 14 15 16 16 14 12 12 12 11 11 10 9
21 21 21 22 22 23 26 25 25 25 25 24 23 23 22 21 20 20 19 19 19 19 18 17 17 17 24 26 26 25 17 16 16 16 15 12 12 11 10 10 8 7
22 22 22 23 23 24 25 26 26 25 25 24 24 23 22 22 20 20 19 19 19 19 18 17 17 22 25 27 27 27 24 17 17 16 16 12 11 10 9 8 7 4
24 23 23 23 23 24 24 25 25 25 25 24 23 23 22 21 20 20 19 19 19 18 18 18 17 23 26 27 28 28 27 20 16 17 15 13 11 10 8 7 6 5
25 25 23 23 22 22 23 23 23 24 24 24 23 23 22 22 21 21 21 20 18 18 18 17 17 22 26 27 28 28 28 24 17 17 16 15 10 9 7 6 5 6
25 24 24 23 22 21 21 21 22 22 23 23 23 23 23 22 21 21 21 21 21 20 19 17 16 23 26 27 28 29 29 26 17 16 15 14 10 8 6 5 6 6
25 24 24 23 22 21 19 20 21 21 22 22 21 21 22 22 22 22 22 22 21 20 19 19 16 23 25 27 29 29 29 23 16 15 14 13 12 8 6 5 7 8
25 24 24 24 23 22 21 20 20 21 21 20 20 21 21 21 22 22 22 22 21 20 19 18 17 22 25 27 28 30 29 21 16 14 13 13 11 10 9 8 8 11
26 26 25 25 23 22 22 22 21 21 21 21 21 21 21 21 21 21 21 20 20 20 20 18 18 20 25 27 29 30 28 20 14 13 12 12 11 11 11 13 13 17
26 26 26 25 24 24 23 22 22 22 22 21 21 21 21 21 20 19 19 19 19 20 22 19 18 19 24 27 29 30 27 18 13 12 11 11 11 12 13 14 14 17
28 27 26 26 25 25 24 24 23 21 21 20 20 19 19 19 18 18 18 17 18 18 18 19 16 16 22 27 29 29 28 16 13 11 10 12 12 13 13 14 15 15